Location: Newark
(34.3481°N, 134.0494°E)
Time: 04:38:32
(UTC+00:00)

Vanguard 3 - Pass Details

Date: 31 January 2020
Orbit: 508 x 3263 km, 33.3° (Epoch: 19 February)

Event Time Altitude Azimuth Distance (km) Brightness Sun altitude
Rises 04:27:28 0° 210° (SSW) 5,392 12.3 35.5°
Reaches altitude 10° 04:30:54 10° 203° (SSW) 4,736 12.5 35.2°
Maximum altitude 04:44:01 40° 139° (SE) 3,809 11.2 34.2°
Drops below altitude 10° 05:01:17 10° 79° (E) 6,204 11.4 32.5°
Sets 05:06:32 0° 74° (ENE) 7,173 11.6 32.0°
